Time,TemperatureF,DewpointF,PressureIn,WindDirection,WindDirectionDegrees,WindSpeedMPH,WindSpeedGustMPH,Humidity,HourlyPrecipIn,Conditions,Clouds,dailyrainin,SolarRadiationWatts/m^2,SoftwareType,DateUTC
2013-06-21 00:00:00,61.5,54.2,29.77,SSW,211,2.3,2.3,77,0.00,CLR,,0.00,0.0,WeatherDisplay:10.37,2013-06-20 23:00:00,
2013-06-21 00:05:00,61.4,54.1,29.77,SW,223,2.3,2.3,77,0.00,CLR,,0.00,0.0,WeatherDisplay:10.37,2013-06-20 23:05:00,
2013-06-21 00:10:00,61.3,54.0,29.77,South,182,6.9,6.9,77,0.00,CLR,,0.00,0.0,WeatherDisplay:10.37,2013-06-20 23:10:00,
2013-06-21 00:15:00,61.3,54.0,29.77,SW,231,9.2,9.2,77,0.00,CLR,,0.00,0.0,WeatherDisplay:10.37,2013-06-20 23:15:00,
2013-06-21 00:20:00,61.2,53.9,29.77,South,188,6.9,6.9,77,0.00,CLR,,0.00,0.0,WeatherDisplay:10.37,2013-06-20 23:20:00,
2013-06-21 00:25:00,61.1,53.8,29.77,SW,228,5.8,5.8,77,0.00,CLR,,0.00,0.0,WeatherDisplay:10.37,2013-06-20 23:25:00,
2013-06-21 00:30:00,61.1,53.8,29.77,South,175,3.5,3.5,77,0.00,CLR,,0.00,0.0,WeatherDisplay:10.37,2013-06-20 23:30:00,
2013-06-21 00:35:00,61.1,53.5,29.77,SW,228,3.5,3.5,76,0.00,CLR,,0.00,0.0,WeatherDisplay:10.37,2013-06-20 23:35:00,
2013-06-21 00:40:00,61.0,53.4,29.78,SSW,209,3.5,3.5,76,0.00,CLR,,0.00,0.0,WeatherDisplay:10.37,2013-06-20 23:40:00,
2013-06-21 00:45:00,61.0,53.4,29.77,SW,217,3.5,3.5,76,0.00,CLR,,0.00,0.0,WeatherDisplay:10.37,2013-06-20 23:45:00,
2013-06-21 00:50:00,60.9,53.3,29.77,SSW,196,4.6,4.6,76,0.00,CLR,,0.00,0.0,WeatherDisplay:10.37,2013-06-20 23:50:00,
2013-06-21 00:55:00,60.9,53.3,29.78,SSW,212,4.6,4.6,76,0.00,CLR,,0.00,0.0,WeatherDisplay:10.37,2013-06-20 23:55:00,
2013-06-21 01:00:00,60.9,53.3,29.77,WSW,237,3.5,3.5,76,0.00,CLR,,0.00,0.0,WeatherDisplay:10.37,2013-06-21 00:00:00,
2013-06-21 01:05:00,60.8,53.5,29.77,SW,233,0.0,0.0,77,0.00,CLR,,0.00,0.0,WeatherDisplay:10.37,2013-06-21 00:05:00,
2013-06-21 01:10:00,60.8,53.5,29.77,SW,234,2.3,2.3,77,0.00,CLR,,0.00,0.0,WeatherDisplay:10.37,2013-06-21 00:10:00,
2013-06-21 01:15:00,60.8,53.5,29.77,SW,230,0.0,0.0,77,0.00,CLR,,0.00,0.0,WeatherDisplay:10.37,2013-06-21 00:15:00,
2013-06-21 01:20:00,60.8,53.5,29.77,SW,222,3.5,0.0,77,0.00,CLR,,0.00,0.0,WeatherDisplay:10.37,2013-06-21 00:20:00,
2013-06-21 01:25:00,60.7,53.4,29.77,SW,223,0.0,0.0,77,0.00,CLR,,0.00,0.0,WeatherDisplay:10.37,2013-06-21 00:25:00,
2013-06-21 01:30:00,60.7,53.4,29.76,SW,222,0.0,0.0,77,0.00,CLR,,0.00,0.0,WeatherDisplay:10.37,2013-06-21 00:30:00,
2013-06-21 01:35:00,60.6,53.3,29.76,SW,223,0.0,0.0,77,0.00,CLR,,0.00,0.0,WeatherDisplay:10.37,2013-06-21 00:35:00,
2013-06-21 01:40:00,60.6,53.3,29.76,SW,223,0.0,0.0,77,0.00,CLR,,0.00,0.0,WeatherDisplay:10.37,2013-06-21 00:40:00,
2013-06-21 01:45:00,60.5,53.3,29.76,SW,222,0.0,0.0,77,0.00,CLR,,0.00,0.0,WeatherDisplay:10.37,2013-06-21 00:45:00,
2013-06-21 01:50:00,60.5,53.3,29.76,SW,223,0.0,0.0,77,0.00,CLR,,0.00,0.0,WeatherDisplay:10.37,2013-06-21 00:50:00,
2013-06-21 01:55:00,60.5,53.3,29.76,SW,223,0.0,0.0,77,0.00,CLR,,0.00,0.0,WeatherDisplay:10.37,2013-06-21 00:55:00,
2013-06-21 02:00:00,60.4,53.5,29.76,SW,222,0.0,0.0,78,0.00,CLR,,0.00,0.0,WeatherDisplay:10.37,2013-06-21 01:00:00,
2013-06-21 02:05:00,60.4,53.5,29.76,SW,223,0.0,0.0,78,0.00,CLR,,0.00,0.0,WeatherDisplay:10.37,2013-06-21 01:05:00,
2013-06-21 02:10:00,60.3,53.4,29.76,SW,222,1.2,0.0,78,0.00,CLR,,0.00,0.0,WeatherDisplay:10.37,2013-06-21 01:10:00,
2013-06-21 02:15:00,60.3,53.1,29.75,SW,222,2.3,2.3,77,0.00,CLR,,0.00,0.0,WeatherDisplay:10.37,2013-06-21 01:15:00,
2013-06-21 02:20:00,60.2,53.3,29.75,SW,223,0.0,0.0,78,0.00,CLR,,0.00,0.0,WeatherDisplay:10.37,2013-06-21 01:20:00,
2013-06-21 02:25:00,60.2,53.7,29.76,SW,223,0.0,0.0,79,0.00,CLR,,0.00,0.0,WeatherDisplay:10.37,2013-06-21 01:25:00,
2013-06-21 02:30:00,60.1,53.6,29.76,SW,223,0.0,0.0,79,0.00,CLR,,0.00,0.0,WeatherDisplay:10.37,2013-06-21 01:30:00,
2013-06-21 02:35:00,60.1,53.2,29.75,SW,223,0.0,0.0,78,0.00,CLR,,0.00,0.0,WeatherDisplay:10.37,2013-06-21 01:35:00,
2013-06-21 02:40:00,60.0,53.1,29.75,SW,222,0.0,0.0,78,0.00,CLR,,0.00,0.0,WeatherDisplay:10.37,2013-06-21 01:40:00,
2013-06-21 02:45:00,59.8,52.9,29.75,SW,223,0.0,0.0,78,0.00,CLR,,0.00,0.0,WeatherDisplay:10.37,2013-06-21 01:45:00,
2013-06-21 02:50:00,59.7,52.8,29.75,SW,222,0.0,0.0,78,0.00,CLR,,0.00,0.0,WeatherDisplay:10.37,2013-06-21 01:50:00,
2013-06-21 02:55:00,59.6,53.1,29.75,SW,222,0.0,0.0,79,0.00,CLR,,0.00,0.0,WeatherDisplay:10.37,2013-06-21 01:55:00,
2013-06-21 03:00:00,59.4,52.9,29.75,SW,223,0.0,0.0,79,0.00,CLR,,0.00,0.0,WeatherDisplay:10.37,2013-06-21 02:00:00,
2013-06-21 03:05:00,59.2,52.7,29.75,SW,223,0.0,0.0,79,0.00,CLR,,0.00,0.0,WeatherDisplay:10.37,2013-06-21 02:05:00,
2013-06-21 03:10:00,59.0,52.8,29.75,SW,223,0.0,0.0,80,0.00,CLR,,0.00,0.0,WeatherDisplay:10.37,2013-06-21 02:10:00,
2013-06-21 03:15:00,58.9,52.7,29.75,SW,223,0.0,0.0,80,0.00,CLR,,0.00,0.0,WeatherDisplay:10.37,2013-06-21 02:15:00,
2013-06-21 03:20:00,58.8,52.6,29.75,SW,222,0.0,0.0,80,0.00,CLR,,0.00,0.0,WeatherDisplay:10.37,2013-06-21 02:20:00,
2013-06-21 03:25:00,58.7,52.5,29.75,SW,222,0.0,0.0,80,0.00,CLR,,0.00,0.0,WeatherDisplay:10.37,2013-06-21 02:25:00,
2013-06-21 03:30:00,58.5,52.4,29.75,SW,222,0.0,0.0,80,0.00,CLR,,0.00,0.0,WeatherDisplay:10.37,2013-06-21 02:30:00,
2013-06-21 03:35:00,58.4,52.6,29.75,SW,223,0.0,0.0,81,0.00,CLR,,0.00,0.0,WeatherDisplay:10.37,2013-06-21 02:35:00,
2013-06-21 03:40:00,58.3,52.5,29.75,SW,222,0.0,0.0,81,0.00,CLR,,0.00,0.0,WeatherDisplay:10.37,2013-06-21 02:40:00,
2013-06-21 03:45:00,58.2,52.4,29.75,SW,223,0.0,0.0,81,0.00,CLR,,0.00,0.0,WeatherDisplay:10.37,2013-06-21 02:45:00,
2013-06-21 03:50:00,58.1,52.3,29.75,SW,223,0.0,0.0,81,0.00,CLR,,0.00,0.0,WeatherDisplay:10.37,2013-06-21 02:50:00,
2013-06-21 03:55:00,58.0,52.2,29.75,SW,223,0.0,0.0,81,0.00,CLR,,0.00,0.0,WeatherDisplay:10.37,2013-06-21 02:55:00,
2013-06-21 04:00:00,57.9,52.1,29.75,SW,223,0.0,0.0,81,0.00,OVC,,0.00,0.0,WeatherDisplay:10.37,2013-06-21 03:00:00,
2013-06-21 04:05:00,57.8,52.0,29.75,SW,223,0.0,0.0,81,0.00,OVC,,0.00,0.0,WeatherDisplay:10.37,2013-06-21 03:05:00,
2013-06-21 04:10:00,57.7,51.9,29.75,SW,223,0.0,0.0,81,0.00,OVC,,0.00,0.0,WeatherDisplay:10.37,2013-06-21 03:10:00,
2013-06-21 04:15:00,57.6,51.8,29.75,SW,223,0.0,0.0,81,0.00,OVC,,0.00,0.0,WeatherDisplay:10.37,2013-06-21 03:15:00,
2013-06-21 04:20:00,57.4,51.6,29.75,SW,223,0.0,0.0,81,0.00,OVC,,0.00,0.0,WeatherDisplay:10.37,2013-06-21 03:20:00,
2013-06-21 04:25:00,57.3,51.5,29.75,SW,223,0.0,0.0,81,0.00,OVC,,0.00,0.0,WeatherDisplay:10.37,2013-06-21 03:25:00,
2013-06-21 04:30:00,57.3,51.5,29.75,SW,222,0.0,0.0,81,0.00,OVC,,0.00,0.0,WeatherDisplay:10.37,2013-06-21 03:30:00,
2013-06-21 04:35:00,57.3,51.5,29.75,SW,222,0.0,0.0,81,0.00,OVC,,0.00,0.0,WeatherDisplay:10.37,2013-06-21 03:35:00,
2013-06-21 04:40:00,57.3,51.5,29.75,SW,222,0.0,0.0,81,0.00,OVC,,0.00,0.0,WeatherDisplay:10.37,2013-06-21 03:40:00,
2013-06-21 04:45:00,57.3,51.9,29.75,SW,222,0.0,0.0,82,0.00,OVC,,0.00,0.0,WeatherDisplay:10.37,2013-06-21 03:45:00,
2013-06-21 04:50:00,57.3,51.9,29.74,SW,223,0.0,0.0,82,0.00,OVC,,0.00,0.0,WeatherDisplay:10.37,2013-06-21 03:50:00,
2013-06-21 04:55:00,57.3,51.9,29.75,SW,223,0.0,0.0,82,0.00,OVC,,0.00,0.0,WeatherDisplay:10.37,2013-06-21 03:55:00,
2013-06-21 05:00:00,57.3,52.2,29.75,SW,223,0.0,0.0,83,0.00,OVC,,0.00,0.0,WeatherDisplay:10.37,2013-06-21 04:00:00,
2013-06-21 05:01:00,57.3,52.2,29.75,SW,223,0.0,0.0,83,0.00,OVC,,0.00,0.0,WeatherDisplay:10.37,2013-06-21 04:01:00,
2013-06-21 05:06:00,57.3,52.2,29.75,SW,222,0.0,0.0,83,0.00,OVC,,0.00,0.0,WeatherDisplay:10.37,2013-06-21 04:06:00,
2013-06-21 05:11:00,57.3,52.2,29.75,SW,223,0.0,0.0,83,0.00,OVC,,0.00,0.0,WeatherDisplay:10.37,2013-06-21 04:11:00,
2013-06-21 05:16:00,57.3,52.2,29.75,SW,223,0.0,0.0,83,0.00,OVC,,0.00,5.0,WeatherDisplay:10.37,2013-06-21 04:16:00,
2013-06-21 05:21:00,57.3,52.2,29.75,SW,223,0.0,0.0,83,0.00,OVC,,0.00,0.0,WeatherDisplay:10.37,2013-06-21 04:21:00,
2013-06-21 05:26:00,57.3,52.2,29.75,SW,223,0.0,0.0,83,0.00,OVC,,0.00,7.0,WeatherDisplay:10.37,2013-06-21 04:26:00,
2013-06-21 05:31:00,57.3,52.5,29.75,SW,223,0.0,0.0,84,0.00,OVC,,0.00,5.0,WeatherDisplay:10.37,2013-06-21 04:31:00,
2013-06-21 05:36:00,57.3,52.5,29.75,SW,223,0.0,0.0,84,0.00,OVC,,0.00,5.0,WeatherDisplay:10.37,2013-06-21 04:36:00,
2013-06-21 05:41:00,57.3,52.5,29.75,SW,223,0.0,0.0,84,0.00,OVC,,0.00,5.0,WeatherDisplay:10.37,2013-06-21 04:41:00,
2013-06-21 05:46:00,57.3,53.1,29.75,SW,223,0.0,0.0,86,0.00,OVC,,0.00,5.0,WeatherDisplay:10.37,2013-06-21 04:46:00,
2013-06-21 05:51:00,57.3,53.1,29.75,SW,222,0.0,0.0,86,0.00,OVC,,0.00,9.0,WeatherDisplay:10.37,2013-06-21 04:51:00,
2013-06-21 05:56:00,57.3,53.1,29.75,SW,223,0.0,0.0,86,0.00,OVC,,0.00,11.0,WeatherDisplay:10.37,2013-06-21 04:56:00,
2013-06-21 06:01:00,57.3,52.5,29.75,SW,223,0.0,0.0,84,0.00,OVC,,0.00,12.0,WeatherDisplay:10.37,2013-06-21 05:01:00,
2013-06-21 06:06:00,57.3,53.1,29.75,SW,223,0.0,0.0,86,0.00,OVC,,0.00,14.0,WeatherDisplay:10.37,2013-06-21 05:06:00,
2013-06-21 06:11:00,57.3,52.5,29.75,SW,223,0.0,0.0,84,0.00,OVC,,0.00,16.0,WeatherDisplay:10.37,2013-06-21 05:11:00,
2013-06-21 06:16:00,57.3,52.5,29.75,SW,222,0.0,0.0,84,0.00,OVC,,0.00,16.0,WeatherDisplay:10.37,2013-06-21 05:16:00,
2013-06-21 06:21:00,57.3,52.5,29.75,SW,222,0.0,0.0,84,0.00,OVC,,0.00,18.0,WeatherDisplay:10.37,2013-06-21 05:21:00,
2013-06-21 06:26:00,57.3,52.5,29.75,SW,223,0.0,0.0,84,0.00,OVC,,0.00,19.0,WeatherDisplay:10.37,2013-06-21 05:26:00,
2013-06-21 06:31:00,57.3,52.5,29.75,SW,223,0.0,0.0,84,0.00,OVC,,0.00,18.0,WeatherDisplay:10.37,2013-06-21 05:31:00,
2013-06-21 06:36:00,57.3,52.2,29.75,SW,222,0.0,0.0,83,0.00,OVC,,0.00,30.0,WeatherDisplay:10.37,2013-06-21 05:36:00,
2013-06-21 06:41:00,57.3,52.5,29.75,SW,223,0.0,0.0,84,0.00,BKN,,0.00,35.0,WeatherDisplay:10.37,2013-06-21 05:41:00,
2013-06-21 06:46:00,57.3,52.2,29.75,SW,222,0.0,0.0,83,0.00,BKN,,0.00,35.0,WeatherDisplay:10.37,2013-06-21 05:46:00,
2013-06-21 06:51:00,57.3,52.2,29.75,SW,223,0.0,0.0,83,0.00,BKN,,0.00,30.0,WeatherDisplay:10.37,2013-06-21 05:51:00,
2013-06-21 06:56:00,57.3,51.9,29.74,SW,222,0.0,0.0,82,0.00,BKN,,0.00,33.0,WeatherDisplay:10.37,2013-06-21 05:56:00,
2013-06-21 07:01:00,57.3,51.9,29.74,SW,223,0.0,0.0,82,0.00,BKN,,0.00,47.0,WeatherDisplay:10.37,2013-06-21 06:01:00,
2013-06-21 07:06:00,57.4,51.9,29.74,SW,224,0.0,0.0,82,0.00,BKN,,0.00,65.0,WeatherDisplay:10.37,2013-06-21 06:06:00,
2013-06-21 07:11:00,57.6,52.1,29.74,SW,225,0.0,0.0,82,0.00,BKN,,0.00,77.0,WeatherDisplay:10.37,2013-06-21 06:11:00,
2013-06-21 07:16:00,57.7,52.2,29.74,SW,225,0.0,0.0,82,0.00,BKN,,0.00,81.0,WeatherDisplay:10.37,2013-06-21 06:16:00,
2013-06-21 07:21:00,57.9,52.4,29.74,SW,220,0.0,0.0,82,0.00,BKN,,0.00,84.0,WeatherDisplay:10.37,2013-06-21 06:21:00,
2013-06-21 07:27:00,58.1,52.3,29.74,SW,220,0.0,0.0,81,0.00,BKN,,0.00,76.0,WeatherDisplay:10.37,2013-06-21 06:27:00,
2013-06-21 07:32:00,58.3,52.5,29.74,SW,227,0.0,0.0,81,0.00,BKN,,0.00,81.0,WeatherDisplay:10.37,2013-06-21 06:32:00,
2013-06-21 07:37:00,58.5,52.4,29.74,SW,227,0.0,0.0,80,0.00,BKN,,0.00,84.0,WeatherDisplay:10.37,2013-06-21 06:37:00,
2013-06-21 07:42:00,58.7,52.2,29.74,SW,227,3.5,3.5,79,0.00,BKN,,0.00,70.0,WeatherDisplay:10.37,2013-06-21 06:42:00,
2013-06-21 07:47:00,58.8,52.3,29.75,SW,227,1.2,0.0,79,0.00,BKN,,0.00,90.0,WeatherDisplay:10.37,2013-06-21 06:47:00,
2013-06-21 07:52:00,59.0,52.1,29.75,SW,227,2.0,2.0,78,0.00,BKN,,0.00,105.0,WeatherDisplay:10.37,2013-06-21 06:52:00,
2013-06-21 07:57:00,59.2,51.6,29.74,SW,228,4.6,4.6,76,0.00,BKN,,0.00,125.0,WeatherDisplay:10.37,2013-06-21 06:57:00,
2013-06-21 08:02:00,59.3,52.1,29.75,SW,228,0.0,0.0,77,0.00,BKN,,0.00,156.0,WeatherDisplay:10.37,2013-06-21 07:02:00,
2013-06-21 08:07:00,59.5,52.6,29.75,SW,229,0.0,0.0,78,0.00,BKN,,0.00,178.0,WeatherDisplay:10.37,2013-06-21 07:07:00,
2013-06-21 08:12:00,59.8,52.6,29.74,SW,228,4.0,4.0,77,0.00,BKN,,0.00,158.0,WeatherDisplay:10.37,2013-06-21 07:12:00,
2013-06-21 08:17:00,60.1,52.9,29.74,SW,223,0.0,0.0,77,0.00,BKN,,0.00,153.0,WeatherDisplay:10.37,2013-06-21 07:17:00,
2013-06-21 08:22:00,60.4,53.2,29.74,SW,228,2.3,2.3,77,0.00,BKN,,0.00,176.0,WeatherDisplay:10.37,2013-06-21 07:22:00,
2013-06-21 08:27:00,60.8,53.5,29.74,SW,229,0.0,0.0,77,0.00,BKN,,0.00,174.0,WeatherDisplay:10.37,2013-06-21 07:27:00,
2013-06-21 08:32:00,61.0,53.4,29.74,SW,229,2.0,2.0,76,0.00,BKN,,0.00,206.0,WeatherDisplay:10.37,2013-06-21 07:32:00,
2013-06-21 08:37:00,61.4,53.4,29.74,SW,229,3.5,3.5,75,0.00,BKN,,0.00,260.0,WeatherDisplay:10.37,2013-06-21 07:37:00,
2013-06-21 08:42:00,61.8,53.4,29.74,SW,229,3.5,3.5,74,0.00,SCT,,0.00,264.0,WeatherDisplay:10.37,2013-06-21 07:42:00,
2013-06-21 08:47:00,62.3,53.9,29.74,SW,229,1.2,0.0,74,0.00,SCT,,0.00,267.0,WeatherDisplay:10.37,2013-06-21 07:47:00,
2013-06-21 08:52:00,62.9,53.7,29.74,SW,229,2.3,2.3,72,0.00,SCT,,0.00,237.0,WeatherDisplay:10.37,2013-06-21 07:52:00,
2013-06-21 08:57:00,63.3,53.3,29.74,SW,224,0.0,0.0,70,0.00,SCT,,0.00,199.0,WeatherDisplay:10.37,2013-06-21 07:57:00,
2013-06-21 09:02:00,63.6,53.6,29.74,SW,229,1.2,0.0,70,0.00,BKN,,0.00,192.0,WeatherDisplay:10.37,2013-06-21 08:02:00,
2013-06-21 09:07:00,63.8,54.2,29.74,SW,229,0.0,0.0,71,0.00,BKN,,0.00,213.0,WeatherDisplay:10.37,2013-06-21 08:07:00,
2013-06-21 09:12:00,63.9,54.3,29.74,SW,229,1.2,0.0,71,0.00,BKN,,0.00,258.0,WeatherDisplay:10.37,2013-06-21 08:12:00,
2013-06-21 09:17:00,64.0,54.0,29.74,SW,232,2.3,2.3,70,0.00,BKN,,0.00,239.0,WeatherDisplay:10.37,2013-06-21 08:17:00,
2013-06-21 09:22:00,64.1,52.5,29.74,SW,231,3.5,3.5,66,0.00,BKN,,0.00,237.0,WeatherDisplay:10.37,2013-06-21 08:22:00,
2013-06-21 09:27:00,64.2,53.0,29.74,SW,229,2.3,0.0,67,0.00,BKN,,0.00,267.0,WeatherDisplay:10.37,2013-06-21 08:27:00,
2013-06-21 09:32:00,64.4,53.2,29.74,SW,228,0.0,0.0,67,0.00,BKN,,0.00,253.0,WeatherDisplay:10.37,2013-06-21 08:32:00,
2013-06-21 09:37:00,64.6,53.8,29.74,WSW,248,0.0,0.0,68,0.00,BKN,,0.00,237.0,WeatherDisplay:10.37,2013-06-21 08:37:00,
2013-06-21 09:42:00,64.7,53.5,29.74,WSW,248,2.3,2.3,67,0.00,BKN,,0.00,248.0,WeatherDisplay:10.37,2013-06-21 08:42:00,
2013-06-21 09:47:00,64.8,52.8,29.74,WSW,250,3.5,0.0,65,0.00,BKN,,0.00,241.0,WeatherDisplay:10.37,2013-06-21 08:47:00,
2013-06-21 09:52:00,65.0,53.4,29.74,WSW,240,6.0,6.0,66,0.00,BKN,,0.00,258.0,WeatherDisplay:10.37,2013-06-21 08:52:00,
2013-06-21 09:57:00,65.1,53.0,29.74,WSW,242,3.5,3.5,65,0.00,BKN,,0.00,234.0,WeatherDisplay:10.37,2013-06-21 08:57:00,
2013-06-21 10:02:00,65.1,52.6,29.73,WSW,241,0.0,0.0,64,0.00,BKN,,0.00,199.0,WeatherDisplay:10.37,2013-06-21 09:02:00,
2013-06-21 10:07:00,65.2,53.1,29.73,WSW,242,1.2,0.0,65,0.00,BKN,,0.00,206.0,WeatherDisplay:10.37,2013-06-21 09:07:00,
2013-06-21 10:12:00,65.3,53.2,29.73,WSW,242,0.0,0.0,65,0.00,BKN,,0.00,162.0,WeatherDisplay:10.37,2013-06-21 09:12:00,
2013-06-21 10:17:00,65.3,53.6,29.73,WSW,242,3.0,3.0,66,0.00,BKN,,0.00,167.0,WeatherDisplay:10.37,2013-06-21 09:17:00,
2013-06-21 10:22:00,65.2,53.6,29.73,SW,234,4.6,4.6,66,0.00,BKN,,0.00,209.0,WeatherDisplay:10.37,2013-06-21 09:22:00,
2013-06-21 10:27:00,65.2,53.1,29.73,SW,232,6.9,6.9,65,0.00,BKN,,0.00,250.0,WeatherDisplay:10.37,2013-06-21 09:27:00,
2013-06-21 10:32:00,65.1,53.0,29.73,SW,235,5.8,5.8,65,0.00,BKN,,0.00,253.0,WeatherDisplay:10.37,2013-06-21 09:32:00,
2013-06-21 10:37:00,65.2,53.6,29.73,SW,236,5.8,5.8,66,0.00,BKN,,0.00,308.0,WeatherDisplay:10.37,2013-06-21 09:37:00,
2013-06-21 10:42:00,65.3,53.2,29.74,SW,225,11.0,11.0,65,0.00,BKN,,0.00,316.0,WeatherDisplay:10.37,2013-06-21 09:42:00,
2013-06-21 10:47:00,65.2,52.7,29.73,WSW,244,11.5,11.5,64,0.00,BKN,,0.00,301.0,WeatherDisplay:10.37,2013-06-21 09:47:00,
2013-06-21 10:52:00,65.3,53.2,29.73,WNW,303,5.8,5.8,65,0.00,BKN,,0.00,232.0,WeatherDisplay:10.37,2013-06-21 09:52:00,
2013-06-21 10:57:00,65.2,52.3,29.73,WSW,247,4.6,4.6,63,0.00,BKN,,0.00,181.0,WeatherDisplay:10.37,2013-06-21 09:57:00,
2013-06-21 11:02:00,65.1,53.0,29.73,SW,232,1.2,1.2,65,0.00,BKN,,0.00,171.0,WeatherDisplay:10.37,2013-06-21 10:02:00,
2013-06-21 11:07:00,64.9,52.8,29.73,SW,233,8.1,8.1,65,0.00,BKN,,0.00,167.0,WeatherDisplay:10.37,2013-06-21 10:07:00,
2013-06-21 11:12:00,64.7,53.1,29.73,WSW,242,4.0,4.0,66,0.00,BKN,,0.00,148.0,WeatherDisplay:10.37,2013-06-21 10:12:00,
2013-06-21 11:17:00,64.5,53.3,29.74,WSW,242,3.5,3.5,67,0.00,BKN,,0.00,132.0,WeatherDisplay:10.37,2013-06-21 10:17:00,
2013-06-21 11:22:00,64.4,53.2,29.73,SW,234,4.6,4.6,67,0.00,BKN,,0.00,142.0,WeatherDisplay:10.37,2013-06-21 10:22:00,
2013-06-21 11:27:00,64.2,53.4,29.73,SW,235,2.3,2.3,68,0.00,BKN,,0.00,151.0,WeatherDisplay:10.37,2013-06-21 10:27:00,
2013-06-21 11:32:00,64.1,53.7,29.73,SW,223,5.8,5.8,69,0.00,BKN,,0.00,146.0,WeatherDisplay:10.37,2013-06-21 10:32:00,
2013-06-21 11:37:00,63.9,53.5,29.73,SW,231,6.0,6.0,69,0.00,BKN,,0.00,153.0,WeatherDisplay:10.37,2013-06-21 10:37:00,
2013-06-21 11:42:00,63.6,53.6,29.73,WSW,246,4.0,4.0,70,0.00,BKN,,0.00,163.0,WeatherDisplay:10.37,2013-06-21 10:42:00,
2013-06-21 11:47:00,63.5,53.5,29.73,SW,222,3.5,3.5,70,0.00,BKN,,0.00,169.0,WeatherDisplay:10.37,2013-06-21 10:47:00,
2013-06-21 11:52:00,63.5,53.9,29.73,SW,233,9.0,9.0,71,0.00,BKN,,0.00,174.0,WeatherDisplay:10.37,2013-06-21 10:52:00,
2013-06-21 11:57:00,63.4,53.8,29.73,WSW,244,3.5,3.5,71,0.00,BKN,,0.00,167.0,WeatherDisplay:10.37,2013-06-21 10:57:00,
2013-06-21 12:02:00,63.5,53.9,29.73,WSW,238,4.0,4.0,71,0.00,BKN,,0.00,158.0,WeatherDisplay:10.37,2013-06-21 11:02:00,
2013-06-21 12:08:00,63.5,53.9,29.72,West,273,3.5,3.5,71,0.00,BKN,,0.00,188.0,WeatherDisplay:10.37,2013-06-21 11:08:00,
2013-06-21 12:13:00,63.6,54.0,29.72,West,273,3.5,3.5,71,0.00,BKN,,0.00,193.0,WeatherDisplay:10.37,2013-06-21 11:13:00,
2013-06-21 12:18:00,63.7,54.1,29.72,WSW,240,8.1,8.1,71,0.00,BKN,,0.00,214.0,WeatherDisplay:10.37,2013-06-21 11:18:00,
2013-06-21 12:23:00,63.8,54.2,29.73,WSW,248,5.8,5.8,71,0.00,BKN,,0.00,278.0,WeatherDisplay:10.37,2013-06-21 11:23:00,
2013-06-21 12:28:00,64.0,54.4,29.73,WSW,252,4.6,4.6,71,0.00,BKN,,0.00,279.0,WeatherDisplay:10.37,2013-06-21 11:28:00,
2013-06-21 12:33:00,64.2,54.2,29.72,SW,227,9.2,9.2,70,0.00,BKN,,0.00,341.0,WeatherDisplay:10.37,2013-06-21 11:33:00,
2013-06-21 12:38:00,64.4,54.4,29.72,NNW,335,10.4,10.4,70,0.00,BKN,,0.00,308.0,WeatherDisplay:10.37,2013-06-21 11:38:00,
2013-06-21 12:43:00,64.7,54.7,29.72,SW,234,9.2,9.2,70,0.00,BKN,,0.00,336.0,WeatherDisplay:10.37,2013-06-21 11:43:00,
2013-06-21 12:48:00,64.8,54.8,29.72,SW,217,4.6,4.6,70,0.00,BKN,,0.00,323.0,WeatherDisplay:10.37,2013-06-21 11:48:00,
2013-06-21 12:53:00,64.9,54.5,29.72,WSW,249,10.4,10.4,69,0.00,BKN,,0.00,320.0,WeatherDisplay:10.37,2013-06-21 11:53:00,
2013-06-21 12:58:00,64.8,55.2,29.73,SW,227,4.6,4.6,71,0.00,BKN,,0.00,302.0,WeatherDisplay:10.37,2013-06-21 11:58:00,
2013-06-21 13:03:00,64.8,54.4,29.73,WSW,251,11.5,11.5,69,0.00,BKN,,0.00,292.0,WeatherDisplay:10.37,2013-06-21 12:03:00,
2013-06-21 13:08:00,64.7,54.7,29.73,West,259,5.8,5.8,70,0.00,BKN,,0.00,311.0,WeatherDisplay:10.37,2013-06-21 12:08:00,
2013-06-21 13:13:00,64.7,54.3,29.73,West,277,11.5,11.5,69,0.00,BKN,,0.00,438.0,WeatherDisplay:10.37,2013-06-21 12:13:00,
2013-06-21 13:18:00,64.8,54.8,29.73,SW,235,7.0,7.0,70,0.00,BKN,,0.00,267.0,WeatherDisplay:10.37,2013-06-21 12:18:00,
2013-06-21 13:23:00,64.9,54.5,29.73,SW,234,10.4,10.4,69,0.00,BKN,,0.00,271.0,WeatherDisplay:10.37,2013-06-21 12:23:00,
2013-06-21 13:28:00,64.6,54.6,29.73,SSW,197,5.8,5.8,70,0.00,BKN,,0.00,218.0,WeatherDisplay:10.37,2013-06-21 12:28:00,
2013-06-21 13:33:00,64.5,54.1,29.73,SW,233,9.2,9.2,69,0.00,BKN,,0.00,206.0,WeatherDisplay:10.37,2013-06-21 12:33:00,
2013-06-21 13:38:00,64.4,54.4,29.73,SW,230,7.0,7.0,70,0.00,BKN,,0.00,200.0,WeatherDisplay:10.37,2013-06-21 12:38:00,
2013-06-21 13:43:00,64.4,54.4,29.72,WSW,241,5.8,5.8,70,0.00,BKN,,0.00,192.0,WeatherDisplay:10.37,2013-06-21 12:43:00,
2013-06-21 13:48:00,64.1,53.7,29.73,WSW,249,6.9,6.9,69,0.00,BKN,,0.00,221.0,WeatherDisplay:10.37,2013-06-21 12:48:00,
2013-06-21 13:53:00,64.1,54.1,29.73,WSW,240,3.5,3.5,70,0.00,BKN,,0.00,236.0,WeatherDisplay:10.37,2013-06-21 12:53:00,
2013-06-21 13:58:00,64.1,54.5,29.72,WSW,239,3.5,3.5,71,0.00,BKN,,0.00,209.0,WeatherDisplay:10.37,2013-06-21 12:58:00,
2013-06-21 14:03:00,64.1,54.1,29.72,WSW,240,5.8,5.8,70,0.00,BKN,,0.00,141.0,WeatherDisplay:10.37,2013-06-21 13:03:00,
2013-06-21 14:08:00,64.1,54.1,29.73,WNW,282,11.5,11.5,70,0.00,BKN,,0.00,167.0,WeatherDisplay:10.37,2013-06-21 13:08:00,
2013-06-21 14:13:00,64.1,54.1,29.73,SW,235,6.9,6.9,70,0.00,BKN,,0.00,183.0,WeatherDisplay:10.37,2013-06-21 13:13:00,
2013-06-21 14:18:00,64.3,54.7,29.73,WSW,248,1.2,0.0,71,0.00,BKN,,0.00,223.0,WeatherDisplay:10.37,2013-06-21 13:18:00,
2013-06-21 14:23:00,64.4,54.4,29.72,WSW,253,2.3,2.3,70,0.00,BKN,,0.00,248.0,WeatherDisplay:10.37,2013-06-21 13:23:00,
2013-06-21 14:28:00,64.6,54.6,29.72,SW,234,11.0,11.0,70,0.00,BKN,,0.00,281.0,WeatherDisplay:10.37,2013-06-21 13:28:00,
2013-06-21 14:33:00,64.8,54.4,29.72,WSW,250,8.0,8.0,69,0.00,BKN,,0.00,274.0,WeatherDisplay:10.37,2013-06-21 13:33:00,
2013-06-21 14:38:00,65.0,54.2,29.72,WSW,246,10.4,10.4,68,0.00,BKN,,0.00,241.0,WeatherDisplay:10.37,2013-06-21 13:38:00,
2013-06-21 14:43:00,65.2,54.4,29.72,SW,217,4.6,4.6,68,0.00,BKN,,0.00,244.0,WeatherDisplay:10.37,2013-06-21 13:43:00,
2013-06-21 14:48:00,65.4,53.7,29.72,SW,225,4.6,4.6,66,0.00,BKN,,0.00,209.0,WeatherDisplay:10.37,2013-06-21 13:48:00,
2013-06-21 14:53:00,65.5,53.0,29.72,SW,226,10.4,10.4,64,0.00,BKN,,0.00,181.0,WeatherDisplay:10.37,2013-06-21 13:53:00,
2013-06-21 14:58:00,65.5,53.4,29.71,WSW,244,5.8,5.8,65,0.00,BKN,,0.00,176.0,WeatherDisplay:10.37,2013-06-21 13:58:00,
2013-06-21 15:03:00,65.6,53.5,29.71,SW,218,4.6,4.6,65,0.00,BKN,,0.00,144.0,WeatherDisplay:10.37,2013-06-21 14:03:00,
2013-06-21 15:09:00,65.5,53.0,29.71,SSW,198,11.5,11.5,64,0.00,BKN,,0.00,174.0,WeatherDisplay:10.37,2013-06-21 14:09:00,
2013-06-21 15:14:00,65.3,52.4,29.71,WSW,244,6.9,6.9,63,0.00,BKN,,0.00,185.0,WeatherDisplay:10.37,2013-06-21 14:14:00,
2013-06-21 15:19:00,65.2,53.1,29.71,WSW,242,12.0,12.0,65,0.00,BKN,,0.00,146.0,WeatherDisplay:10.37,2013-06-21 14:19:00,
2013-06-21 15:24:00,65.1,53.0,29.71,SW,232,12.7,12.7,65,0.00,BKN,,0.00,306.0,WeatherDisplay:10.37,2013-06-21 14:24:00,
2013-06-21 15:29:00,65.2,53.1,29.71,SW,227,10.4,10.4,65,0.00,BKN,,0.00,221.0,WeatherDisplay:10.37,2013-06-21 14:29:00,
2013-06-21 15:35:00,65.1,52.2,29.71,SW,215,6.9,6.9,63,0.00,BKN,,0.00,135.0,WeatherDisplay:10.37,2013-06-21 14:35:00,
2013-06-21 15:40:00,65.0,52.1,29.71,WSW,248,9.2,9.2,63,0.00,BKN,,0.00,213.0,WeatherDisplay:10.37,2013-06-21 14:40:00,
2013-06-21 15:45:00,65.0,52.5,29.71,WSW,243,6.9,6.9,64,0.00,BKN,,0.00,255.0,WeatherDisplay:10.37,2013-06-21 14:45:00,
2013-06-21 15:50:00,65.1,52.6,29.71,West,281,3.5,3.5,64,0.00,BKN,,0.00,255.0,WeatherDisplay:10.37,2013-06-21 14:50:00,
2013-06-21 15:55:00,65.3,52.4,29.71,West,259,3.5,3.5,63,0.00,BKN,,0.00,272.0,WeatherDisplay:10.37,2013-06-21 14:55:00,
2013-06-21 16:00:00,65.4,52.5,29.71,SSW,207,3.0,3.0,63,0.00,BKN,,0.00,309.0,WeatherDisplay:10.37,2013-06-21 15:00:00,
2013-06-21 16:05:00,65.9,52.1,29.70,SW,233,12.7,12.7,61,0.00,BKN,,0.00,237.0,WeatherDisplay:10.37,2013-06-21 15:05:00,
2013-06-21 16:10:00,66.1,51.4,29.71,WSW,248,13.8,13.8,59,0.00,BKN,,0.00,274.0,WeatherDisplay:10.37,2013-06-21 15:10:00,
2013-06-21 16:15:00,66.1,51.4,29.71,SW,225,11.5,11.5,59,0.00,BKN,,0.00,248.0,WeatherDisplay:10.37,2013-06-21 15:15:00,
2013-06-21 16:20:00,66.1,51.4,29.70,SW,214,9.2,9.2,59,0.00,BKN,,0.00,199.0,WeatherDisplay:10.37,2013-06-21 15:20:00,
2013-06-21 16:25:00,66.0,51.3,29.70,West,264,6.9,6.9,59,0.00,BKN,,0.00,183.0,WeatherDisplay:10.37,2013-06-21 15:25:00,
2013-06-21 16:30:00,66.0,51.3,29.70,WSW,254,9.2,9.2,59,0.00,BKN,,0.00,202.0,WeatherDisplay:10.37,2013-06-21 15:30:00,
2013-06-21 16:35:00,65.8,50.6,29.70,SW,236,11.5,11.5,58,0.00,BKN,,0.00,248.0,WeatherDisplay:10.37,2013-06-21 15:35:00,
2013-06-21 16:40:00,65.8,51.1,29.70,SW,222,3.0,3.0,59,0.00,BKN,,0.00,504.0,WeatherDisplay:10.37,2013-06-21 15:40:00,
2013-06-21 16:45:00,65.9,50.7,29.70,WSW,241,12.7,12.7,58,0.00,SCT,,0.00,427.0,WeatherDisplay:10.37,2013-06-21 15:45:00,
2013-06-21 16:50:00,66.0,50.3,29.70,WSW,238,3.0,3.0,57,0.00,SCT,,0.00,79.0,WeatherDisplay:10.37,2013-06-21 15:50:00,
2013-06-21 16:55:00,66.0,50.8,29.69,WSW,244,1.2,1.2,58,0.00,BKN,,0.00,165.0,WeatherDisplay:10.37,2013-06-21 15:55:00,
2013-06-21 17:00:00,65.9,50.7,29.69,SSW,209,3.5,3.5,58,0.00,BKN,,0.00,260.0,WeatherDisplay:10.37,2013-06-21 16:00:00,
2013-06-21 17:05:00,66.0,49.8,29.70,SW,232,15.0,15.0,56,0.00,BKN,,0.00,165.0,WeatherDisplay:10.37,2013-06-21 16:05:00,
2013-06-21 17:10:00,66.1,49.5,29.69,WSW,252,8.1,8.1,55,0.00,BKN,,0.00,165.0,WeatherDisplay:10.37,2013-06-21 16:10:00,
2013-06-21 17:15:00,66.1,50.4,29.70,SW,227,5.0,5.0,57,0.00,BKN,,0.00,169.0,WeatherDisplay:10.37,2013-06-21 16:15:00,
2013-06-21 17:20:00,66.0,49.8,29.69,WSW,251,11.5,11.5,56,0.00,BKN,,0.00,134.0,WeatherDisplay:10.37,2013-06-21 16:20:00,
2013-06-21 17:25:00,66.1,49.9,29.69,WNW,283,4.6,4.6,56,0.00,BKN,,0.00,65.0,WeatherDisplay:10.37,2013-06-21 16:25:00,
2013-06-21 17:30:00,66.1,49.0,29.69,SW,230,13.8,13.8,54,0.00,BKN,,0.00,49.0,WeatherDisplay:10.37,2013-06-21 16:30:00,
2013-06-21 17:35:00,66.0,49.4,29.69,West,269,10.4,10.4,55,0.00,OVC,,0.00,37.0,WeatherDisplay:10.37,2013-06-21 16:35:00,
2013-06-21 17:41:00,65.7,48.6,29.69,WSW,244,10.4,10.4,54,0.00,OVC,,0.00,37.0,WeatherDisplay:10.37,2013-06-21 16:41:00,
2013-06-21 17:46:00,65.5,49.9,29.69,WSW,242,6.9,6.9,57,0.00,OVC,,0.00,47.0,WeatherDisplay:10.37,2013-06-21 16:46:00,
2013-06-21 17:51:00,65.3,48.7,29.69,SW,234,9.2,9.2,55,0.00,OVC,,0.00,74.0,WeatherDisplay:10.37,2013-06-21 16:51:00,
2013-06-21 17:56:00,65.1,50.4,29.68,SSE,163,10.4,10.4,59,0.00,BKN,,0.00,153.0,WeatherDisplay:10.37,2013-06-21 16:56:00,
2013-06-21 18:01:00,64.9,50.7,29.69,West,259,4.0,4.0,60,0.00,BKN,,0.00,105.0,WeatherDisplay:10.37,2013-06-21 17:01:00,
2013-06-21 18:07:00,64.8,48.2,29.68,WSW,238,11.5,11.5,55,0.00,BKN,,0.00,56.0,WeatherDisplay:10.37,2013-06-21 17:07:00,
2013-06-21 18:12:00,64.5,49.4,29.68,SW,231,5.8,5.8,58,0.00,BKN,,0.00,47.0,WeatherDisplay:10.37,2013-06-21 17:12:00,
2013-06-21 18:18:00,64.2,48.6,29.68,South,183,13.8,13.8,57,0.00,OVC,,0.00,62.0,WeatherDisplay:10.37,2013-06-21 17:18:00,
2013-06-21 18:23:00,63.9,48.8,29.68,SW,230,5.8,5.8,58,0.00,BKN,,0.00,51.0,WeatherDisplay:10.37,2013-06-21 17:23:00,
2013-06-21 18:28:00,63.6,47.6,29.67,SSW,211,6.0,6.0,56,0.00,BKN,,0.00,33.0,WeatherDisplay:10.37,2013-06-21 17:28:00,
2013-06-21 18:33:00,63.3,47.8,29.67,WSW,251,5.8,5.8,57,0.00,OVC,,0.00,47.0,WeatherDisplay:10.37,2013-06-21 17:33:00,
2013-06-21 18:38:00,63.1,47.6,29.67,WSW,252,4.6,4.6,57,0.00,BKN,,0.00,49.0,WeatherDisplay:10.37,2013-06-21 17:38:00,
2013-06-21 18:44:00,63.0,47.1,29.67,West,267,11.5,11.5,56,0.00,BKN,,0.00,47.0,WeatherDisplay:10.37,2013-06-21 17:44:00,
2013-06-21 18:46:00,62.9,47.0,29.67,SW,236,8.1,8.1,56,0.00,BKN,,0.00,40.0,WeatherDisplay:10.37,2013-06-21 17:46:00,
2013-06-21 18:47:00,62.9,47.0,29.67,SW,222,9.2,9.2,56,0.00,BKN,,0.00,35.0,WeatherDisplay:10.37,2013-06-21 17:47:00,
2013-06-21 18:52:00,62.8,47.3,29.67,WSW,250,5.8,5.8,57,0.00,OVC,,0.00,30.0,WeatherDisplay:10.37,2013-06-21 17:52:00,
2013-06-21 18:58:00,62.7,47.2,29.67,SW,218,5.0,5.0,57,0.00,OVC,,0.00,28.0,WeatherDisplay:10.37,2013-06-21 17:58:00,
2013-06-21 19:03:00,62.6,47.1,29.67,WSW,248,3.5,3.5,57,0.00,OVC,,0.00,26.0,WeatherDisplay:10.37,2013-06-21 18:03:00,
2013-06-21 19:08:00,62.3,46.4,29.67,SW,235,5.0,5.0,56,0.00,OVC,,0.00,28.0,WeatherDisplay:10.37,2013-06-21 18:08:00,
2013-06-21 19:13:00,62.1,45.7,29.66,WSW,249,10.4,10.4,55,0.00,OVC,,0.00,33.0,WeatherDisplay:10.37,2013-06-21 18:13:00,
2013-06-21 19:19:00,61.8,45.0,29.66,WSW,244,6.9,6.9,54,0.00,OVC,,0.00,39.0,WeatherDisplay:10.37,2013-06-21 18:19:00,
2013-06-21 19:23:00,61.6,45.3,29.66,West,263,3.5,3.5,55,0.00,BKN,,0.00,49.0,WeatherDisplay:10.37,2013-06-21 18:23:00,
2013-06-21 19:24:00,61.5,44.7,29.67,WSW,242,10.4,10.4,54,0.00,BKN,,0.00,51.0,WeatherDisplay:10.37,2013-06-21 18:24:00,
2013-06-21 19:29:00,61.3,45.0,29.66,WSW,242,3.5,3.5,55,0.00,BKN,,0.00,58.0,WeatherDisplay:10.37,2013-06-21 18:29:00,
2013-06-21 19:34:00,61.1,45.7,29.66,WSW,240,5.8,5.8,57,0.00,BKN,,0.00,67.0,WeatherDisplay:10.37,2013-06-21 18:34:00,
2013-06-21 19:39:00,61.0,45.7,29.66,WSW,249,4.6,4.6,57,0.00,BKN,,0.00,72.0,WeatherDisplay:10.37,2013-06-21 18:39:00,
2013-06-21 19:44:00,60.9,46.0,29.66,WSW,245,4.6,4.6,58,0.00,BKN,,0.00,69.0,WeatherDisplay:10.37,2013-06-21 18:44:00,
2013-06-21 19:45:00,60.8,45.5,29.66,WSW,244,3.5,3.5,57,0.00,BKN,,0.00,67.0,WeatherDisplay:10.37,2013-06-21 18:45:00,
2013-06-21 19:46:00,60.8,45.5,29.66,WSW,237,10.0,10.0,57,0.00,BKN,,0.00,67.0,WeatherDisplay:10.37,2013-06-21 18:46:00,
2013-06-21 19:51:00,60.7,45.4,29.66,WSW,244,10.0,10.0,57,0.00,BKN,,0.00,63.0,WeatherDisplay:10.37,2013-06-21 18:51:00,
2013-06-21 19:56:00,60.7,46.3,29.66,WSW,240,3.5,3.5,59,0.00,BKN,,0.00,67.0,WeatherDisplay:10.37,2013-06-21 18:56:00,
2013-06-21 20:01:00,60.6,45.7,29.65,WSW,243,3.5,3.5,58,0.00,BKN,,0.00,62.0,WeatherDisplay:10.37,2013-06-21 19:01:00,
2013-06-21 20:06:00,60.6,46.2,29.66,WSW,242,1.2,1.2,59,0.00,BKN,,0.00,54.0,WeatherDisplay:10.37,2013-06-21 19:06:00,
2013-06-21 20:11:00,60.6,45.7,29.66,WSW,244,3.5,3.5,58,0.00,BKN,,0.00,49.0,WeatherDisplay:10.37,2013-06-21 19:11:00,
2013-06-21 20:16:00,60.5,46.5,29.65,WSW,243,2.3,0.0,60,0.00,BKN,,0.00,42.0,WeatherDisplay:10.37,2013-06-21 19:16:00,
2013-06-21 20:20:00,60.4,46.0,29.65,WSW,244,2.3,2.3,59,0.00,BKN,,0.00,37.0,WeatherDisplay:10.37,2013-06-21 19:20:00,
2013-06-21 20:25:00,60.3,45.5,29.65,WSW,249,5.8,5.8,58,0.00,BKN,,0.00,33.0,WeatherDisplay:10.37,2013-06-21 19:25:00,
2013-06-21 20:30:00,60.2,45.8,29.65,WSW,240,3.5,3.5,59,0.00,BKN,,0.00,28.0,WeatherDisplay:10.37,2013-06-21 19:30:00,
2013-06-21 20:35:00,60.1,46.2,29.65,WSW,240,1.2,0.0,60,0.00,BKN,,0.00,23.0,WeatherDisplay:10.37,2013-06-21 19:35:00,
2013-06-21 20:40:00,60.0,46.1,29.65,West,271,1.2,1.2,60,0.00,BKN,,0.00,19.0,WeatherDisplay:10.37,2013-06-21 19:40:00,
2013-06-21 20:45:00,59.9,46.0,29.65,WSW,245,0.0,1.3,60,0.00,BKN,,0.00,18.0,WeatherDisplay:10.37,2013-06-21 19:45:00,
2013-06-21 20:48:00,59.9,45.1,29.65,WSW,245,3.5,3.5,58,0.00,BKN,,0.00,16.0,WeatherDisplay:10.37,2013-06-21 19:48:00,
2013-06-21 20:53:00,59.7,45.3,29.65,SW,223,4.6,4.6,59,0.00,BKN,,0.00,16.0,WeatherDisplay:10.37,2013-06-21 19:53:00,
2013-06-21 20:58:00,59.6,45.2,29.65,SW,225,3.5,0.0,59,0.00,BKN,,0.00,16.0,WeatherDisplay:10.37,2013-06-21 19:58:00,
2013-06-21 21:04:00,59.6,45.7,29.65,SW,225,3.5,3.5,60,0.00,BKN,,0.00,14.0,WeatherDisplay:10.37,2013-06-21 20:04:00,
2013-06-21 21:05:00,59.5,45.6,29.65,SW,225,3.5,0.0,60,0.00,BKN,,0.00,14.0,WeatherDisplay:10.37,2013-06-21 20:05:00,
2013-06-21 21:11:00,59.4,45.5,29.65,SW,225,2.0,0.0,60,0.00,BKN,,0.00,14.0,WeatherDisplay:10.37,2013-06-21 20:11:00,
2013-06-21 21:14:00,59.4,45.5,29.65,SW,235,4.6,4.6,60,0.00,BKN,,0.00,16.0,WeatherDisplay:10.37,2013-06-21 20:14:00,
2013-06-21 21:19:00,59.3,45.8,29.65,SW,234,2.3,2.3,61,0.00,BKN,,0.00,18.0,WeatherDisplay:10.37,2013-06-21 20:19:00,
2013-06-21 21:24:00,59.2,45.8,29.65,WSW,237,4.6,4.6,61,0.00,BKN,,0.00,16.0,WeatherDisplay:10.37,2013-06-21 20:24:00,
2013-06-21 21:29:00,59.1,45.7,29.64,WSW,237,3.5,3.5,61,0.00,BKN,,0.00,11.0,WeatherDisplay:10.37,2013-06-21 20:29:00,
2013-06-21 21:34:00,59.0,46.0,29.64,WSW,238,4.0,4.0,62,0.00,BKN,,0.00,7.0,WeatherDisplay:10.37,2013-06-21 20:34:00,
2013-06-21 21:39:00,58.9,45.9,29.64,WSW,238,1.2,1.2,62,0.00,BKN,,0.00,0.0,WeatherDisplay:10.37,2013-06-21 20:39:00,
2013-06-21 21:44:00,58.8,45.8,29.64,SW,234,3.5,3.5,62,0.00,OVC,,0.00,0.0,WeatherDisplay:10.37,2013-06-21 20:44:00,
2013-06-21 21:49:00,58.7,46.1,29.64,WSW,238,1.2,1.2,63,0.00,OVC,,0.00,0.0,WeatherDisplay:10.37,2013-06-21 20:49:00,
2013-06-21 21:54:00,58.6,46.0,29.64,SW,234,3.5,3.5,63,0.00,OVC,,0.00,0.0,WeatherDisplay:10.37,2013-06-21 20:54:00,
2013-06-21 21:59:00,58.5,46.4,29.64,SW,234,3.5,3.5,64,0.00,OVC,,0.00,0.0,WeatherDisplay:10.37,2013-06-21 20:59:00,
2013-06-21 22:04:00,58.4,46.3,29.64,SW,235,2.3,2.3,64,0.00,OVC,,0.00,0.0,WeatherDisplay:10.37,2013-06-21 21:04:00,
2013-06-21 22:09:00,58.3,46.2,29.64,SW,234,0.0,0.0,64,0.00,OVC,,0.00,0.0,WeatherDisplay:10.37,2013-06-21 21:09:00,
2013-06-21 22:14:00,58.2,46.1,29.64,SW,234,1.2,0.0,64,0.00,OVC,,0.00,0.0,WeatherDisplay:10.37,2013-06-21 21:14:00,
2013-06-21 22:19:00,58.1,46.4,29.63,SW,233,2.3,2.3,65,0.00,OVC,,0.00,0.0,WeatherDisplay:10.37,2013-06-21 21:19:00,
2013-06-21 22:24:00,58.0,46.3,29.63,SW,233,0.0,0.0,65,0.00,OVC,,0.00,0.0,WeatherDisplay:10.37,2013-06-21 21:24:00,
2013-06-21 22:29:00,57.9,46.2,29.63,SW,229,3.5,3.5,65,0.00,OVC,,0.00,0.0,WeatherDisplay:10.37,2013-06-21 21:29:00,
2013-06-21 22:34:00,57.9,46.2,29.63,SW,230,2.3,2.3,65,0.00,OVC,,0.00,0.0,WeatherDisplay:10.37,2013-06-21 21:34:00,
2013-06-21 22:39:00,57.8,46.5,29.63,South,191,3.0,3.0,66,0.00,CLR,,0.00,0.0,WeatherDisplay:10.37,2013-06-21 21:39:00,
2013-06-21 22:45:00,57.7,46.4,29.62,SW,226,2.3,2.3,66,0.00,CLR,,0.00,0.0,WeatherDisplay:10.37,2013-06-21 21:45:00,
2013-06-21 22:50:00,57.6,46.3,29.62,South,190,3.5,3.5,66,0.00,CLR,,0.00,0.0,WeatherDisplay:10.37,2013-06-21 21:50:00,
2013-06-21 22:55:00,57.4,46.1,29.62,South,190,11.5,11.5,66,0.00,CLR,,0.00,0.0,WeatherDisplay:10.37,2013-06-21 21:55:00,
2013-06-21 23:00:00,57.3,46.4,29.61,South,183,3.5,3.5,67,0.00,CLR,,0.00,0.0,WeatherDisplay:10.37,2013-06-21 22:00:00,
2013-06-21 23:05:00,57.3,46.4,29.61,South,179,2.3,2.3,67,0.00,CLR,,0.00,0.0,WeatherDisplay:10.37,2013-06-21 22:05:00,
2013-06-21 23:10:00,57.3,46.8,29.61,South,177,3.5,3.5,68,0.00,CLR,,0.00,0.0,WeatherDisplay:10.37,2013-06-21 22:10:00,
2013-06-21 23:15:00,57.3,46.8,29.61,SSE,167,3.5,3.5,68,0.00,CLR,,0.00,0.0,WeatherDisplay:10.37,2013-06-21 22:15:00,
2013-06-21 23:20:00,57.3,46.8,29.61,SE,134,5.0,5.0,68,0.00,CLR,,0.00,0.0,WeatherDisplay:10.37,2013-06-21 22:20:00,
2013-06-21 23:25:00,57.3,47.2,29.60,SE,140,8.1,8.1,69,0.00,CLR,,0.00,0.0,WeatherDisplay:10.37,2013-06-21 22:25:00,
2013-06-21 23:30:00,57.3,47.2,29.60,SSE,155,4.6,4.6,69,0.00,CLR,,0.00,0.0,WeatherDisplay:10.37,2013-06-21 22:30:00,
2013-06-21 23:35:00,57.3,47.2,29.60,South,184,3.5,3.5,69,0.00,CLR,,0.00,0.0,WeatherDisplay:10.37,2013-06-21 22:35:00,
2013-06-21 23:40:00,57.3,47.6,29.60,SSE,161,10.4,10.4,70,0.00,CLR,,0.00,0.0,WeatherDisplay:10.37,2013-06-21 22:40:00,
2013-06-21 23:46:00,57.3,48.0,29.59,SSW,200,11.5,11.5,71,0.00,CLR,,0.00,0.0,WeatherDisplay:10.37,2013-06-21 22:46:00,
2013-06-21 23:51:00,57.1,47.8,29.59,SSE,155,9.2,9.2,71,0.00,CLR,,0.00,0.0,WeatherDisplay:10.37,2013-06-21 22:51:00,
2013-06-21 23:56:00,57.0,48.1,29.58,South,169,10.4,10.4,72,0.00,CLR,,0.00,0.0,WeatherDisplay:10.37,2013-06-21 22:56:00,